Find Starlink 5823

NORAD ID: 55786 Int'l Des: 2023-028 Owner: SPXS Country: US Constellation: starlink operational
LEOCIRCULAR

Live Position

Loading 3D Globe...

About Starlink 5823

Description loading...

Upcoming Passes

Passes for default location (London). Set your location on the main map for personalized predictions.

Altitude History

Loading altitude history...

Two-Line Element Set

1 55786U 23028AX 26106.66668980 -.00048135 00000-0 -40517-2 0 9992
2 55786 69.9992 108.7832 0003516 270.2642 59.9719 14.98350766 5772
Epoch: Apr 16, 2026 • Age: 17 hours

Current Status

Altitude 574.3 km
Velocity 7.57 km/s
Sub-Earth Point 10.52°N, 55.96°W
Launch Date Mar 3, 2023
Age 3.1 years
Type internet

Technical Details

Classification Payload
Mass 305.00 kg
Dry Mass 290.00 kg
Total Mass 305.00 kg
Length 0.20 m
Diameter 2.80 m
Span 9.00 m
Shape Box + pan
Manufacturer SPXS
Bus Type Starlink
Phase Status In Orbit
Owner/State SPXS/US

Most Searched